Rappy
kostenlose Werkstattsuche
SERVICE HOTLINE: 06301 600-2999 (1)

Sonstige - Günstige Kfz Werkstatt Reparaturen

Sie suchen für Sonstige eine günstige Autowerkstatt. Nutzen Sie unsere Kfz Werkstattsuche, um Preise zu vergleichen und die günstige KFZ-Werkstatt für Sonstige in Ihrer Nähe zu finden. Nutzen Sie einfach unser Werkstattanfragenformular auf der rechten Seite.

Hier sehen Sie letzten Autoreparatur-Anfragen für Sonstige

Datum Autohersteller Kfz-Modell Kfz-Typ Werkstatt Ort Werkstattleistung
12.04.2024 16:50:16 Ford Mondeo 3 Turnier 1.8 16V Seeland Sonstige
12.04.2024 13:24:43 Ford Focus 3 Turnier 1.0 EcoBoost Schöningen Sonstige
12.04.2024 09:58:30 Ford Puma 1 1.7 16V Wehr Sonstige
12.04.2024 09:28:59 VW Passat B8 Variant 2.0 TDI 4motion Essen Sonstige
11.04.2024 18:51:06 VW Polo 3 Variant 1.9 SDI Angermünde Sonstige
11.04.2024 14:50:39 Renault Espace 5 1.6 dCi 160 Berlin Sonstige
11.04.2024 10:17:23 Opel Vectra B CC 1.6 i 16V (F68) Ludwigshafen Am Rhein Sonstige
11.04.2024 09:42:02 Opel Grandland X Van 1.5 (75) München Sonstige
11.04.2024 09:40:22 BMW 5er Touring 525i Berlin Sonstige
11.04.2024 07:36:12 Audi A6 C7 Avant 3.0 TDI quattro Chemnitz Sonstige
10.04.2024 19:41:29 Mercedes-Benz C C 200 CDI (204.201) Jerrishoe Sonstige
10.04.2024 19:19:56 Opel Corsa D 1.3 CDTI (L08, L68) Essen Sonstige
10.04.2024 17:29:10 Mercedes-Benz Citan Tourer 111 CDI (415.703, 415.705) Büdingen Sonstige
10.04.2024 16:50:08 Ford Focus 2 1.4 Waging Am See Sonstige
10.04.2024 14:38:03 Citroën Jumper 2 Kasten 2.2 HDi 110 Teisnach Sonstige
10.04.2024 11:24:19 Hyundai ix20 1.4 Nenndorf Sonstige
09.04.2024 22:54:45 Ford Focus 2 1.4 Waging Am See Sonstige
09.04.2024 22:51:46 Renault Laguna 3 Grandtour 2.0 dCi (KT0M, KT0N, KT0S, KT19, KT1F) Werl Sonstige
09.04.2024 19:01:29 BMW 5er Gran Turismo 530d Weichering Sonstige
09.04.2024 17:58:51 Audi A4 B8 1.8 TFSI Korntal-Münchingen Sonstige
09.04.2024 15:55:44 MITSUBISHI Pajero 4 Van 3.2 DI-D Duisburg Sonstige
09.04.2024 15:47:32 Mercedes-Benz A A 140 (168.031, 168.131) Erlangen Sonstige
09.04.2024 15:00:15 Opel Zafira B 1.9 CDTI (M75) Donauwörth Sonstige
09.04.2024 14:30:23 Ford Focus 3 1.6 EcoBoost Dortmund Sonstige
09.04.2024 10:21:45 MERCEDES-BENZ E E 350 CDI (212.223) Essen Sonstige
09.04.2024 09:14:16 VW Fox Schr 1.2 Recklinghausen Sonstige
09.04.2024 09:00:34 Seat Ibiza 4 ST 1.2 TSI Bonn Sonstige
09.04.2024 08:07:01 Mercedes-Benz EQA EQA 250 (243.701) Berlin Sonstige
08.04.2024 18:14:10 VW Passat B7 Variant 2.0 TDI Regensburg Sonstige
Sie suchen für Sonstige eine günstige Werkstatt? Anfrage jetzt stellen
08.04.2024 16:16:19 Hyundai Kona 1 1.6 T-GDi Melle Sonstige
08.04.2024 14:47:44 Opel Meriva A Van 1.4 16V Twinport (E75) Willich Sonstige
08.04.2024 11:36:50 Skoda Octavia 2 Kombi 2.0 TDI 16V Todtmoos Sonstige
08.04.2024 10:03:43 Opel Grandland 1.6 Turbo Hybrid4 Lörrach Sonstige
08.04.2024 02:58:14 VW Golf 4 1.4 16V Titz Sonstige
07.04.2024 23:04:27 Ford Mondeo 3 Turnier ST220 Monschau Sonstige
06.04.2024 22:28:27 Alfa Romeo Giulietta 2.0 JTDM (940FXQ1A, 940FYC1A) Osterholz-Scharmbeck Sonstige
06.04.2024 22:25:42 VW TRANSPORTER T4 Bus 2.5 TDI Bad Homburg Vor Der Höhe Sonstige
06.04.2024 13:51:45 BMW 7er 728i, iL Dortmund Sonstige
06.04.2024 12:08:37 BMW 5er Touring 530d Grevenbroich Sonstige
05.04.2024 18:22:32 Audi A5 Cabrio S5 quattro Essen Sonstige
05.04.2024 13:02:08 VW Sharan 2.0 Köthen (Anhalt) Sonstige
05.04.2024 12:08:06 AUDI A5 Cabriolet S5 quattro Essen Sonstige
05.04.2024 11:39:54 Renault Megane 4 1.3 TCe 140 (B9NB) Halle (Saale) Sonstige
05.04.2024 01:23:52 Porsche Cayenne 3.0 D Duisburg Sonstige
04.04.2024 13:14:39 Kia Cee 1.6 CRDi 136 Horb Am Neckar Sonstige
03.04.2024 22:41:37 VW Passat B8 Alltrack 2.0 TDI 4motion Eichwalde Sonstige
03.04.2024 22:04:16 Jeep Grand Cherokee 4 3.0 CRD V6 4x4 Kerpen Sonstige
03.04.2024 20:51:42 RENAULT MEGANE III Grandtour 1.5 dCi (KZ09, KZ0D, KZ1G) Wachtberg Sonstige
03.04.2024 17:37:35 Renault Modus 1.6 (JP0L, JP0V) Betzenstein Sonstige
03.04.2024 14:33:37 Honda HR 1.5 (RU1) Ludwigshafen Am Rhein Sonstige
03.04.2024 10:23:24 Seat Ibiza 4 ST 1.4 TDI Großrosseln Sonstige
03.04.2024 09:53:16 Seat Leon 3 ST 1.4 TSI Willich Sonstige
03.04.2024 09:19:30 Audi A4 B8 1.8 TFSI Hamburg Sonstige
03.04.2024 02:32:04 VW Passat B7 Variant 2.0 TDI Regensburg Sonstige
02.04.2024 23:31:39 BMW 5er 530d Sankt Wendel Sonstige
02.04.2024 20:07:24 VW Golf 5 Variant 1.4 TSI Brechen Sonstige
02.04.2024 18:29:05 VW Caddy 4 Kasten 2.0 TDI Schafflund Sonstige
02.04.2024 16:18:22 Fiat 500C 1.2 (312CXA1A, 312AXA1A) Immenstaad Am Bodensee Sonstige
02.04.2024 13:17:24 Renault Megane 3 Kombi Van 1.5 dCi Bad Dürkheim Sonstige
Sie suchen für Sonstige eine günstige Werkstatt? Anfrage jetzt stellen
02.04.2024 11:53:51 Fiat Scudo Fahrgestell 1.6 D Multijet Berlin Sonstige
01.04.2024 21:57:09 Fiat Ducato Kasten 120 Multijet 2.3 D Berlin Sonstige
01.04.2024 21:14:03 Opel Corsa D Kasten 1.2 (L08) Bonn Sonstige
01.04.2024 20:52:13 Volvo C30 D5 Rosenheim Sonstige
01.04.2024 16:37:06 Suzuki Swift 4 1.2 (AZH 412, ZC72S) Lichtenfels Sonstige
01.04.2024 15:57:51 Dacia Sandero 3 1.0 TCe 90 ECO-G Rheinberg Sonstige
01.04.2024 10:26:44 Peugeot Boxer Fahrgestell 2.2 HDi 120 Altbach Sonstige
31.03.2024 13:41:43 SKODA OCTAVIA II Combi 1.4 TSI Berlin Sonstige
31.03.2024 08:25:24 Audi A4 B8 1.8 TFSI Korntal-Münchingen Sonstige
30.03.2024 15:00:10 BMW 7er 728i, iL Dortmund Sonstige
29.03.2024 22:44:11 Fiat Ducato Kasten 120 Multijet 2.3 D Berlin Sonstige
29.03.2024 22:05:14 FORD TRANSIT Kasten 2.4 TDCi RWD Berlin Sonstige
29.03.2024 17:21:51 Opel Zafira Tourer C 2.0 CDTi (75) Darmstadt Sonstige
29.03.2024 16:10:23 Mercedes-Benz CLS CLS 320 CDI (219.322) Markt Erlbach Sonstige
28.03.2024 20:34:01 Mercedes-Benz A A 170 (169.032, 169.332) Niederau Sonstige
28.03.2024 19:06:15 Mercedes-Benz A A 170 (169.032, 169.332) Niederau Sonstige
28.03.2024 17:55:28 CITROËN C4 GRAND PICASSO I 1.6 HDi 110 Lügde Sonstige
28.03.2024 17:09:43 Mercedes-Benz A A 180 CDI (169.007, 169.307) Hamburg Sonstige
28.03.2024 12:34:47 Skoda Rapid Spaceback 1.0 TSI Böhlen Sonstige
28.03.2024 11:18:17 Renault Scenic 4 1.2 TCe 130 Duisburg Sonstige
28.03.2024 09:05:01 SKODA OCTAVIA II Combi 1.4 TSI Berlin Brandenburg Sonstige
27.03.2024 21:25:55 Renault Koleos 1 2.0 dCi 4x4 (HY0K) Eschelbronn Sonstige
27.03.2024 15:23:51 Audi A4 B8 2.0 TDI quattro Essen Sonstige
27.03.2024 14:57:19 Skoda Octavia 4 2.0 TDI Poing Sonstige
27.03.2024 07:28:52 VW T5 Kasten 1.9 TDI Düsseldorf Sonstige
27.03.2024 06:08:13 Audi A5 Sportback S5 quattro Balingen Sonstige
26.03.2024 23:26:43 Mercedes-Benz A A 180 CDI (169.007, 169.307) Stolberg Sonstige
26.03.2024 23:21:17 Mercedes-Benz A A 180 CDI (169.007, 169.307) Stolberg Sonstige
25.03.2024 23:13:59 Hyundai i10 II 1.0 Beindersheim Sonstige
25.03.2024 18:26:38 VW Golf 5 1.6 FSI Dachau Sonstige
Sie suchen für Sonstige eine günstige Werkstatt? Anfrage jetzt stellen
25.03.2024 17:22:37 VW Golf 5 1.9 TDI Schopfloch Sonstige
25.03.2024 17:22:13 VW Passat B7 2.0 TDI Berlin Sonstige
25.03.2024 16:35:19 Audi A6 C7 Avant 2.0 TDI Berlin Sonstige
25.03.2024 16:32:05 Audi Q5 35 TDI Mild Hybrid Würzburg Sonstige
25.03.2024 16:07:27 Audi A5 Sportback S5 quattro Balingen Sonstige
25.03.2024 16:00:40 Nissan Qashqai 3 1.3 DIG-T Bonn Sonstige
25.03.2024 15:17:12 Toyota Corolla Kombi 1.4 VVTi (ZZE120) Kumhausen Sonstige
25.03.2024 13:00:25 VW T4 Bus 2.4 D Wahlstedt Sonstige
25.03.2024 12:08:26 Fiat 500C 0.9 (312AG1A) Bad Nauheim Sonstige
25.03.2024 10:52:49 VW Golf 7 Variant 1.2 TSI Karlsruhe Sonstige
23.03.2024 19:10:32 VW Golf 7 1.2 TSI Neuenstein Sonstige

Hier können Sie kostenlos Werkstattangebote einholen!

Wählen Sie Hersteller und Modell Ihres Fahrzeugs aus den folgenden Listen aus.

Geben Sie die Schlüsselnummern Ihres Fahrzeuges in das unten stehenden Felder ein.

Kfz-Brief Schlüsselnummern
Sie brauchen Hilfe?
Telefon: 06301 600-2999

oder schreiben Sie uns
E-Mail

Bitte haben Sie einen Moment Geduld...